Retour au catalogue

KUIPER-00547

ActifCommunicationsVLEO
NORAD 69615·PAYLOAD·🇺🇸 United States

Lancé Jun 17, 2026 depuis Guiana Space Centre

Loading…

Prochains Passages (prochaines 24 heures)

TLE

FraisSource: CelesTrak SupGP

Époque: Sep 14, 2026, 16:40 UTC

1 69615C 26140Z   26257.69488426  .00009832  00000+0  26932-3 0  2572
2 69615  51.8819 325.4901 0009549 141.7256  75.5129 15.36661276    11

Suivez KUIPER-00547 en temps réel avec AllMySat

Download on the App Store